Regional Weather Roundup
Issued by NWS Grand Forks, ND

Home | Current Version | Previous Version | Graphics & Text | Print | Product List | Glossary On
Versions: 1 2 3 4 5 6 7 8 9 10 11 12 13 14 15 16 17 18 19 20 21 22 23 24 25 26 27 28 29 30 31 32 33 34 35 36 37 38 39 40 41 42 43 44 45 46 47 48 49 50
000
ASUS43 KFGF 271931
RWRFGF
PRAIRIE TO PINES  WEATHER ROUNDUP
NATIONAL WEATHER SERVICE EASTERN NORTH DAKOTA/GRAND FORKS ND
200 PM CDT THU AUG 27 2015

 **SATELLITE DATA USED TO AUGMENT SKY COVER AT AUTOMATED STATIONS**
 *****  WEATHER ACROSS EASTERN NORTH DAKOTA  *****

CITY           SKY/WX    TMP DP  RH WIND       PRES   REMARKS
GRAND FORKS    PTSUNNY   75  60  59 S9        29.94F
GRAND FRKS AFB PTSUNNY   76  59  56 SE9       29.95F
GRAND FRKS NWS   N/A     73 N/A N/A S6          N/A
DEVILS LAKE    PTSUNNY   75  61  60 SE9       29.94S
FARGO          MOSUNNY   77  63  61 S5        29.95F
WAHPETON ARPT  MOCLDY    75  61  60 S5        29.96S
$$

 ***** WEATHER ACROSS CENTRAL AND WESTERN NORTH DAKOTA  *****

CITY           SKY/WX    TMP DP  RH WIND       PRES   REMARKS
BISMARCK       PTSUNNY   77  67  71 VRB5      29.97F
MINOT          PTSUNNY   77  61  57 SE7       29.94F
JAMESTOWN      PTSUNNY   75  66  73 SE6       29.96S
MINOT AFB      MOSUNNY   83  62  50 CALM      29.92F
GARRISON         N/A     78  65  63 S5        29.95F
WILLISTON      MOSUNNY   80  64  58 CALM      29.94F
DICKINSON      PTSUNNY   84  58  40 VRB3      29.95F
HETTINGER      MOSUNNY   81  58  45 VRB7      29.98F
$$

 *****  OTHER AIRPORT OBSERVATIONS IN OUR AREA  *****

CITY           SKY/WX    TMP DP  RH WIND       PRES   REMARKS
WALHALLA       FAIR      75  63  64 MISG      29.93S
GRAFTON AIRPOR FAIR      75  63  64 SE8G14    29.95S
VALLEY CITY AR FAIR      73  68  83 S6        29.96F
CANDO          FAIR      79  64  61 S13       29.94S
CAVALIER APRT  FAIR      77  61  57 S9G17     29.92F
GWINNER        FAIR      79  68  69 E5        29.96S
SHEYENNE NWR     N/A     77  67  70 S5        29.95S
ROLLA            N/A     77  59  53 CALM      29.95F
 ***** THE ABOVE OBSERVATIONS ARE NON NWS ARE NOT QUALITY
       CONTROLLED AND MAY MIS-REPORT RAIN FOR SNOW...
$$

  *****  WEATHER ACROSS NORTHERN MINNESOTA  *****

CITY           SKY/WX    TMP DP  RH WIND       PRES   REMARKS
FLAG ISLAND    SUNNY     66  55  68 SE6       29.95F
WARROAD        SUNNY     70  63  78 E7        29.96F
ROSEAU         SUNNY     77  59  53 SE8       29.95F
HALLOCK        SUNNY     77  61  57 SE9       29.93F
THF RVR FALLS  MOSUNNY  N/A N/A N/A SE8       29.96S
BAUDETTE       MOSUNNY   74  56  53 S5        29.98F
WASKISH        SUNNY     75  61  60 S5        29.97F
CROOKSTON      PTSUNNY   75  63  64 S7        29.95F
STEPHEN NDAWN    N/A    N/A N/A N/A S7          N/A
GREENBUSH NDAW   N/A     77  57  50 S6          N/A
$$
  *****  WEATHER ACROSS CENTRAL AND WEST MINNESOTA  *****

CITY           SKY/WX    TMP DP  RH WIND       PRES   REMARKS
FOSSTON        PTSUNNY   75  63  64 S7        29.97F
BEMIDJI        MOSUNNY   74  61  63 SE7       29.98F
PARK RAPIDS    PTSUNNY   75  60  59 S10       29.98F
ELBOW LAKE     FAIR      74  64  72 S5        29.97S
WADENA         MOSUNNY   75  63  64 S9        29.98F
DETROIT LAKES  MOSUNNY   73  63  68 SW8       29.99S
MOORHEAD       MOSUNNY   75  63  64 S9        29.96S
FERGUS FALLS   MOSUNNY   73  64  73 SE3       29.96S
MORRIS MN      FAIR      73  64  73 SE9G17    29.97S
STAPLES        MOSUNNY   73  61  64 S7        29.99S
$$
  *****  WEATHER ELSEWHERE ACROSS MINNESOTA  *****

CITY           SKY/WX    TMP DP  RH WIND       PRES   REMARKS
DULUTH         PTSUNNY   70  57  63 S9        30.05F
INTRNTL FALLS  SUNNY     74  57  55 VRB6      29.99F
ELY            SUNNY     72  52  49 S7        30.03S
CLOQUET        PTSUNNY   72  55  56 SE6       30.04F
WHEATON        PTSUNNY   73  64  73 SE7       29.97S
BRAINERD       CLOUDY    74  61  63 S12       30.00F
HIBBING        PTSUNNY   73  57  57 VRB6      30.02F
ALEXANDRIA     SUNNY     74  63  68 VRB3      29.99F
SAINT CLOUD    MOSUNNY   75  61  61 S15       30.00F
MINNEAPOLIS    CLOUDY    72  58  61 SE9       30.04F
$$

  *****  WEATHER ACROSS SOUTH DAKOTA  *****

CITY           SKY/WX    TMP DP  RH WIND       PRES   REMARKS
SIOUX FALLS    CLOUDY    75  66  73 SE10      29.99F
BROOKINGS      CLOUDY    73  66  78 E6        30.02F
WATERTOWN      CLOUDY    71  65  81 S15       30.00R
HURON          CLOUDY    76  67  73 S10       29.96F
SISSETON         N/A     77  66  68 VRB3      29.94F
ABERDEEN       CLOUDY    79  68  69 NE3       29.95F
MITCHELL       PTSUNNY   76  67  73 E9        29.96S
PIERRE         CLOUDY    72  66  81 NE5       29.97S
MOBRIDGE       CLOUDY    76  68  76 S6        29.96S
RAPID CITY     CLOUDY    71  56  58 NW16      30.03F
$$

  *****  SOME WEATHER IN NEARBY STATES *****

CITY           SKY/WX    TMP DP  RH WIND       PRES   REMARKS
GLASGOW MT     SUNNY     82  57  42 VRB6      29.92F
GREAT FALLS MT CLOUDY    85  39  19 SW15      30.03F
CHEYENNE WY    MOSUNNY   76  48  37 NW13G23   30.19F
SCOTTSBLUFF NE MOSUNNY   84  55  36 N20       30.03S
OMAHA NE       PTSUNNY   80  64  58 S26G35    29.98F
DES MOINES IA  CLOUDY    68  61  78 S15       30.05F
DAVENPORT IA   CLOUDY    73  59  61 SW9       30.17F
CHICAGO IL     MOSUNNY   73  52  47 E6        30.17F
EAU CLAIRE WI  MOSUNNY   75  54  47 S12       30.07F
LA CROSSE WI   MOSUNNY   75  57  53 S12       30.09F
$$

  *****  SOME NATIONAL WEATHER *****

CITY           SKY/WX    TMP DP  RH WIND       PRES   REMARKS
LA GUARDIA NY  PTSUNNY   79  53  40 N8        30.04S
RALEIGH NC     PTSUNNY   83  60  45 NE9       30.07F
ATLANTA GA     PTSUNNY   81  64  56 E13       30.03F
NEW ORLEANS LA MOSUNNY   84  58  40 N8        30.00F
OKLAHOMA CITY  MOSUNNY   93  69  45 S12       30.06F HX  98
ALBUQUERQUE NM PTSUNNY   78  56  46 VRB3      30.29F
SALT LAKE CITY MOSUNNY   82  53  36 CALM      30.23F
LOS ANGELES CA MOSUNNY   80  68  66 W9        29.99F
BOISE ID       MOSUNNY   88  39  17 NE7       30.14F
SEATTLE WA     PTSUNNY   73  49  42 SW6       30.10S
$$

*** WEATHER ACROSS MANITOBA...SASKATCHEWAN AND ONTARIO ***
                ***ONTARIO***

CITY           SKY/WX    TMP DP  RH WIND       PRES   REMARKS
GERALDTON      PTSUNNY   72  45  37 SW17      30.01F
THUNDER BAY    MOSUNNY   72  54  53 S9        30.03F
SIOUX LOOKOUT  PTSUNNY   73  54  49 SW9       29.99F
TORONTO        PTSUNNY   66  54  63 NW3       30.14F
BIG TROUT LK   PTSUNNY   61  55  82 NW3       29.87F
PICKLE LAKE    MOSUNNY   73  48  40 W13       29.93F
DRYDEN         SUNNY     73  50  43 W8        29.98F
KENORA         PTSUNNY   72  54  53 SW9       29.98F
$$
                *** MANITOBA***

CITY           SKY/WX    TMP DP  RH WIND       PRES   REMARKS
BRANDON        MOSUNNY   79  61  53 CALM      29.91F
DAUPHIN        SUNNY     77  59  53 W5        29.90F
ISLAND LAKE    LGT RAIN  61  55  82 N6        29.91F
PILOT MOUND      N/A     79  59  50 E2          N/A
THE PAS        MOSUNNY   73  59  60 W10       29.87F
THOMPSON       PTSUNNY   64  50  59 SE3       29.89F
WINNIPEG       SUNNY     77  61  57 S5        29.92F
LYNN LAKE      SUNNY     63  48  59 MISG      29.85F
CHURCHILL      LGT RAIN  63  45  51 W12       29.80F
GILLAM         PTSUNNY   61  48  63 NW10      29.89F
$$
                ***SASKATCHEWAN***

CITY           SKY/WX    TMP DP  RH WIND       PRES   REMARKS
ESTEVAN        MOSUNNY   84  59  42 W6        29.93F
KINDERSLEY     CLOUDY    73  55  53 CALM      29.90F
LLOYDMINSTER   PTSUNNY   73  55  53 SW6       29.90F
PRINCE ALBERT  CLOUDY    73  57  56 S5        29.88F
REGINA         PTSUNNY   79  57  47 W6        29.90F
YORKTON        SUNNY     75  59  57 VRB6      29.91F
N. BATTLEFORD  SUNNY     73  57  56 VRB5      29.90F
LA RONGE       NOT AVBL
SASKATOON      SUNNY     77  57  50 VRB5      29.89F
SWIFT CURRENT  MOSUNNY   82  52  34 W6        29.90F
$$
NOTE: THESE ARE AUTOMATED STATIONS WITH LIMITED QUALITY CONTROL
      "FAIR" INDICATES FEW OR NO CLOUDS BELOW 12,000 FEET WITH NO
      SIGNIFICANT WEATHER AND/OR OBSTRUCTIONS TO VISIBILITY.
      SKY/WX - SKY CONDITION AND SIGNIFICANT WEATHER.
      TMP - AIR TEMPERATURE.    DP   - DEWPOINT TEMPERATURE.
      RH  - RELATIVE HUMIDITY.  PRES - PRESSURE.
      HX  - HEAT INDEX.         WCI  - WIND CHILL INDEX.
$


USA.gov is the U.S. government's official web portal to all federal, state and local government web resources and services.